�������l�o���
Date,Time,MP-1(��Sv/h),MP-2(��Sv/h),MP-3(��Sv/h),MP-4(��Sv/h),MP-5(��Sv/h),MP-6(��Sv/h),MP-7(��Sv/h),MP-8(��Sv/h),����,����(m/s),���J
2014/07/16,00:00,2.2,4.0,4.4,3.9,4.2,1.6,2.2,2.4,��,3.9,��
2014/07/16,00:10,2.2,4.0,4.5,3.9,4.2,1.6,2.2,2.4,��,4.1,��
2014/07/16,00:20,2.2,4.0,4.4,3.9,4.2,1.6,2.2,2.4,��,4.1,��
2014/07/16,00:30,2.2,4.0,4.5,3.9,4.2,1.6,2.2,2.4,��,3.7,��
2014/07/16,00:40,2.2,4.0,4.4,3.9,4.2,1.6,2.2,2.4,��,4.3,��
2014/07/16,00:50,2.2,4.1,4.5,4.0,4.2,1.6,2.2,2.4,��쐼,3.6,��
2014/07/16,01:00,2.2,4.0,4.4,3.9,4.2,1.6,2.2,2.4,��,4.2,��
2014/07/16,01:10,2.2,4.0,4.4,4.0,4.2,1.6,2.2,2.4,��,4.0,��
2014/07/16,01:20,2.2,4.0,4.5,3.9,4.2,1.6,2.2,2.4,��,4.3,��
2014/07/16,01:30,2.2,4.0,4.5,3.9,4.2,1.6,2.2,2.4,��,4.3,��
2014/07/16,01:40,2.2,4.0,4.4,3.9,4.2,1.6,2.2,2.4,��,4.4,��
2014/07/16,01:50,2.2,4.0,4.4,3.9,4.2,1.6,2.2,2.4,��,4.1,��
2014/07/16,02:00,2.2,4.0,4.4,3.9,4.2,1.6,2.2,2.4,��,5.4,��
2014/07/16,02:10,2.2,4.1,4.5,3.9,4.2,1.6,2.2,2.4,��,5.3,��
2014/07/16,02:20,2.2,4.0,4.4,4.0,4.2,1.6,2.2,2.4,��,5.4,��
2014/07/16,02:30,2.2,4.0,4.4,3.9,4.2,1.6,2.2,2.4,��,4.4,��
2014/07/16,02:40,2.2,4.0,4.4,3.9,4.2,1.6,2.2,2.4,��,3.8,��
2014/07/16,02:50,2.2,4.0,4.4,3.9,4.2,1.6,2.2,2.4,��쐼,3.1,��
2014/07/16,03:00,2.2,4.0,4.4,3.9,4.2,1.6,2.2,2.4,��,3.4,��
2014/07/16,03:10,2.2,4.1,4.5,3.9,4.2,1.6,2.2,2.4,��쐼,2.1,��
2014/07/16,03:20,2.2,4.0,4.5,3.9,4.2,1.6,2.2,2.4,��,2.5,��
2014/07/16,03:30,2.2,4.0,4.4,3.9,4.2,1.6,2.2,2.4,��쐼,2.2,��
2014/07/16,03:40,2.2,4.0,4.4,3.9,4.2,1.6,2.2,2.4,��쐼,2.6,��
2014/07/16,03:50,2.2,4.0,4.4,3.9,4.2,1.6,2.2,2.4,��쐼,2.0,��
2014/07/16,04:00,2.2,4.0,4.4,3.9,4.2,1.6,2.2,2.4,��쐼,2.2,��
2014/07/16,04:10,2.2,4.0,4.4,3.9,4.2,1.6,2.2,2.4,��쐼,1.7,��
2014/07/16,04:20,2.2,4.0,4.4,3.9,4.2,1.6,2.2,2.4,��쐼,1.8,��
2014/07/16,04:30,2.2,4.0,4.4,3.9,4.2,1.6,2.2,2.4,��쐼,2.2,��
2014/07/16,04:40,2.2,4.0,4.4,3.9,4.2,1.6,2.2,2.4,��,3.0,��
2014/07/16,04:50,2.2,4.0,4.4,3.9,4.2,1.6,2.2,2.4,��,2.6,��
2014/07/16,05:00,2.2,4.0,4.4,3.9,4.2,1.6,2.2,2.4,��,2.8,��
2014/07/16,05:10,2.2,4.0,4.4,3.9,4.2,1.6,2.2,2.4,��,2.8,��
2014/07/16,05:20,2.2,4.0,4.4,3.9,4.2,1.6,2.2,2.4,��,2.9,��
2014/07/16,05:30,2.2,4.0,4.4,3.9,4.2,1.6,2.2,2.4,��,3.2,��
2014/07/16,05:40,2.2,4.0,4.4,4.0,4.2,1.6,2.2,2.4,��,4.0,��
2014/07/16,05:50,2.2,4.0,4.4,3.9,4.2,1.6,2.2,2.4,��쐼,4.7,��
2014/07/16,06:00,2.2,4.0,4.4,3.9,4.2,1.6,2.2,2.4,��,4.7,��
2014/07/16,06:10,2.2,4.0,4.5,3.9,4.2,1.6,2.2,2.4,��,4.1,��
2014/07/16,06:20,2.2,4.0,4.5,3.9,4.2,1.6,2.2,2.4,��,5.0,��
2014/07/16,06:30,2.2,4.0,4.5,3.9,4.2,1.6,2.2,2.4,��,4.1,��
2014/07/16,06:40,2.2,4.1,4.5,3.9,4.2,1.5,2.2,2.4,��,4.0,��
2014/07/16,06:50,2.2,4.1,4.4,3.9,4.2,1.5,2.2,2.4,��쐼,3.2,��
2014/07/16,07:00,2.2,4.1,4.5,3.9,4.2,1.6,2.2,2.4,�쐼,2.0,��
2014/07/16,07:10,2.2,4.1,4.5,3.9,4.2,1.5,2.2,2.4,�쐼,1.3,��
2014/07/16,07:20,2.2,4.1,4.5,4.0,4.2,1.6,2.2,2.4,���쐼,0.6,��
2014/07/16,07:30,2.2,4.0,4.5,4.0,4.2,1.6,2.2,2.4,��,0.6,��
2014/07/16,07:40,2.2,4.1,4.5,4.0,4.2,1.6,2.2,2.4,�k,0.6,��
2014/07/16,07:50,2.2,4.1,4.5,4.0,4.2,1.6,2.2,2.4,�k��,0.8,��
2014/07/16,08:00,2.2,4.1,4.5,3.9,4.2,1.6,2.2,2.4,-,CALM,��
2014/07/16,08:10,2.2,4.1,4.5,4.0,4.2,1.6,2.2,2.4,-,CALM,��
2014/07/16,08:20,2.2,4.1,4.5,4.0,4.2,1.6,2.2,2.4,���k��,0.8,��
2014/07/16,08:30,2.2,4.1,4.5,4.0,4.2,1.6,2.2,2.4,�k�k��,1.0,��
2014/07/16,08:40,2.2,4.1,4.5,4.0,4.2,1.6,2.2,2.4,�k,1.4,��
2014/07/16,08:50,2.2,4.1,4.5,4.0,4.2,1.6,2.2,2.4,�k,2.2,��
2014/07/16,09:00,2.2,4.1,4.5,4.0,4.3,1.6,2.2,2.4,�k,2.1,��
2014/07/16,09:10,2.2,4.1,4.5,4.0,4.3,1.6,2.2,2.4,�k�k��,3.2,��
2014/07/16,09:20,2.2,4.1,4.5,4.0,4.3,1.6,2.2,2.4,�k�k��,3.9,��
2014/07/16,09:30,2.2,4.1,4.5,4.0,4.3,1.6,2.2,2.4,�k,4.7,��
2014/07/16,09:40,-,4.1,4.5,4.0,4.3,1.6,2.2,2.4,�k,4.3,��
2014/07/16,09:50,-,4.1,4.5,4.0,4.3,1.6,2.2,2.4,�k,4.1,��
2014/07/16,10:00,-,4.1,4.5,4.0,4.2,1.6,2.2,2.4,�k�k��,3.5,��
2014/07/16,10:10,-,4.1,4.5,4.0,4.3,1.6,2.2,2.4,�k�k��,3.5,��
2014/07/16,10:20,-,4.1,4.5,4.0,4.3,1.6,2.2,2.4,�k�k��,3.3,��
2014/07/16,10:30,-,4.1,4.5,4.0,4.3,1.6,2.2,2.4,�k��,3.2,��
2014/07/16,10:40,-,4.1,4.5,4.0,4.3,1.6,2.2,2.4,���k��,1.9,��
2014/07/16,10:50,2.2,4.1,4.5,4.0,4.3,1.6,2.2,2.4,���쓌,2.0,��
2014/07/16,11:00,2.2,4.1,4.5,4.0,4.3,1.6,2.2,2.4,�쓌,1.3,��
2014/07/16,11:10,2.2,4.1,4.5,4.0,4.3,1.6,2.2,2.4,��쓌,2.7,��
2014/07/16,11:20,2.2,4.1,4.5,4.0,4.3,1.6,2.2,2.4,��쓌,3.5,��
2014/07/16,11:30,2.2,4.1,4.5,4.0,4.3,1.6,2.2,2.4,��쓌,6.3,��
2014/07/16,11:40,2.2,4.1,4.5,4.0,4.3,1.6,2.2,2.4,��쓌,7.7,��
2014/07/16,11:50,2.2,4.1,4.5,4.0,4.3,1.6,2.2,2.4,��,8.8,��
2014/07/16,12:00,2.2,4.1,4.5,4.0,4.3,1.6,2.2,2.4,��,8.6,��
2014/07/16,12:10,2.2,4.1,4.5,4.0,4.3,1.6,2.2,2.4,��,7.4,��
2014/07/16,12:20,2.2,4.1,4.5,4.0,4.3,1.6,2.2,2.4,��,7.2,��
2014/07/16,12:30,2.2,4.1,4.5,4.0,4.3,1.6,2.2,2.4,��,7.1,��
2014/07/16,12:40,2.2,4.1,4.5,4.0,4.3,1.6,2.2,2.4,��,8.8,��
2014/07/16,12:50,2.2,4.1,4.5,4.0,4.3,1.6,2.2,2.4,��쓌,11.2,��
2014/07/16,13:00,2.2,4.1,4.5,4.0,4.3,1.6,2.2,2.4,��,10.7,��
2014/07/16,13:10,2.2,4.1,4.5,4.0,4.3,1.6,2.2,2.4,��,10.4,��
2014/07/16,13:20,2.2,4.1,4.5,4.0,4.3,1.6,2.2,2.4,��쓌,11.6,��
2014/07/16,13:30,2.2,4.1,4.5,4.0,4.3,1.6,2.2,2.4,��,11.0,��
2014/07/16,13:40,2.2,4.1,4.5,4.0,4.3,1.6,2.2,2.4,��쓌,13.0,��
2014/07/16,13:50,2.2,4.1,4.5,4.0,4.3,1.6,2.2,2.4,��쓌,12.7,��
2014/07/16,14:00,2.2,4.1,4.5,4.0,4.3,1.6,2.2,2.4,��쓌,12.3,��
2014/07/16,14:10,2.2,4.1,4.5,4.0,4.3,1.6,2.2,2.4,��쓌,11.5,��
2014/07/16,14:20,2.2,4.1,4.5,4.0,4.3,1.6,2.2,2.4,��쓌,8.2,��
2014/07/16,14:30,2.2,4.1,4.5,4.0,4.3,1.6,2.2,2.4,��,8.8,��
2014/07/16,14:40,2.2,4.1,4.5,4.0,4.3,1.6,2.2,2.4,��,9.3,��
2014/07/16,14:50,2.2,4.1,4.5,4.0,4.3,1.6,2.2,2.4,��쓌,10.8,��
2014/07/16,15:00,2.2,4.1,4.5,4.0,4.3,1.6,2.2,2.4,��쓌,10.8,��
2014/07/16,15:10,2.2,4.1,4.5,4.0,4.3,1.6,2.2,2.4,��쓌,11.8,��
2014/07/16,15:20,2.2,4.1,4.5,4.0,4.3,1.6,2.2,2.4,��쓌,9.9,��
2014/07/16,15:30,2.2,4.1,4.5,4.0,4.3,1.6,2.2,2.4,��쓌,11.9,��
2014/07/16,15:40,2.2,4.1,4.5,4.0,4.3,1.6,2.2,2.4,��쓌,8.8,��
2014/07/16,15:50,2.2,4.1,4.5,4.0,4.3,1.6,2.2,2.4,��쓌,10.7,��
2014/07/16,16:00,2.2,4.1,4.5,4.0,4.3,1.6,2.2,2.4,��쓌,8.9,��
2014/07/16,16:10,2.2,4.1,4.5,4.0,4.3,1.6,2.2,2.4,��쓌,8.5,�L
2014/07/16,16:20,2.2,4.1,4.5,4.0,4.3,1.6,2.2,2.4,��,6.8,�L
2014/07/16,16:30,2.2,4.0,4.4,3.9,4.2,1.5,2.2,2.4,��,5.1,�L
2014/07/16,16:40,2.2,4.0,4.4,3.9,4.2,1.5,2.2,2.4,��쓌,4.8,�L
2014/07/16,16:50,2.2,4.0,4.4,3.9,4.2,1.5,2.2,2.4,��,3.4,�L
2014/07/16,17:00,2.2,4.0,4.4,3.9,4.1,1.5,2.2,2.4,�쐼,3.1,�L
2014/07/16,17:10,2.2,3.9,4.3,3.9,4.1,1.5,2.2,2.4,�쓌,2.6,�L
2014/07/16,17:20,2.2,3.8,4.3,3.8,4.0,1.5,2.1,2.4,���k��,2.2,�L
2014/07/16,17:30,2.2,3.8,4.3,3.8,4.1,1.5,2.1,2.4,�k,3.5,�L
2014/07/16,17:40,2.2,3.9,4.3,3.8,4.1,1.5,2.1,2.4,�k�k��,3.6,�L
2014/07/16,17:50,2.2,3.9,4.3,3.8,4.1,1.5,2.1,2.4,�k�k��,4.3,�L
2014/07/16,18:00,2.2,3.9,4.3,3.8,4.1,1.5,2.1,2.4,�k�k��,4.9,��
2014/07/16,18:10,2.2,3.9,4.3,3.8,4.1,1.5,2.1,2.4,�k�k��,5.4,��
2014/07/16,18:20,2.2,3.9,4.3,3.8,4.1,1.5,2.1,2.4,�k��,6.0,�L
2014/07/16,18:30,2.2,3.9,4.3,3.8,4.1,1.5,2.1,2.4,�k�k��,6.6,��
2014/07/16,18:40,2.2,3.9,4.3,3.8,4.1,1.5,2.1,2.4,�k�k��,7.4,�L
2014/07/16,18:50,2.2,3.9,4.3,3.8,4.1,1.5,2.1,2.4,�k�k��,7.5,�L
2014/07/16,19:00,2.2,3.9,4.3,3.8,4.1,1.5,2.1,2.4,�k�k��,7.4,�L
2014/07/16,19:10,2.2,3.9,4.3,3.8,4.1,1.5,2.1,2.4,�k�k��,6.9,��
2014/07/16,19:20,2.2,3.9,4.3,3.8,4.1,1.5,2.1,2.4,�k�k��,6.3,��
2014/07/16,19:30,2.2,3.9,4.3,3.8,4.1,1.5,2.1,2.4,�k,7.9,��
2014/07/16,19:40,2.2,3.9,4.3,3.8,4.1,1.5,2.1,2.4,�k,7.2,��
2014/07/16,19:50,2.2,3.9,4.3,3.8,4.1,1.5,2.1,2.4,�k,7.2,��
2014/07/16,20:00,2.2,3.9,4.3,3.8,4.1,1.5,2.1,2.4,�k,6.8,��
2014/07/16,20:10,2.2,3.9,4.3,3.8,4.1,1.5,2.1,2.4,�k,6.4,��
2014/07/16,20:20,2.2,3.9,4.3,3.8,4.1,1.5,2.1,2.4,�k,6.4,��
2014/07/16,20:30,2.2,3.9,4.3,3.8,4.1,1.5,2.1,2.4,�k,6.7,��
2014/07/16,20:40,2.2,3.9,4.3,3.8,4.1,1.5,2.1,2.4,�k,6.3,��
2014/07/16,20:50,2.2,3.9,4.3,3.8,4.1,1.5,2.1,2.4,�k,6.7,��
2014/07/16,21:00,2.2,3.9,4.3,3.8,4.1,1.5,2.1,2.4,�k�k��,6.0,��
2014/07/16,21:10,2.2,3.9,4.3,3.8,4.1,1.5,2.1,2.4,�k,6.5,��
2014/07/16,21:20,2.2,3.9,4.3,3.8,4.1,1.5,2.1,2.4,�k,5.8,��
2014/07/16,21:30,2.2,3.9,4.3,3.8,4.1,1.5,2.1,2.4,�k,5.8,��
2014/07/16,21:40,2.2,3.9,4.3,3.8,4.1,1.5,2.1,2.4,�k,5.4,��
2014/07/16,21:50,2.2,3.9,4.3,3.8,4.1,1.5,2.1,2.4,�k,5.3,��
2014/07/16,22:00,2.2,3.9,4.3,3.8,4.1,1.5,2.1,2.4,�k,5.8,��
2014/07/16,22:10,2.2,3.9,4.3,3.8,4.1,1.5,2.1,2.4,�k,6.3,��
2014/07/16,22:20,2.2,3.9,4.3,3.8,4.1,1.5,2.1,2.4,�k,5.8,��
2014/07/16,22:30,2.2,3.9,4.3,3.8,4.1,1.5,2.1,2.4,�k,5.6,��
2014/07/16,22:40,2.2,3.9,4.3,3.8,4.1,1.5,2.1,2.4,�k�k��,4.7,��
2014/07/16,22:50,2.2,3.9,4.3,3.8,4.1,1.5,2.1,2.4,�k,5.4,��
2014/07/16,23:00,2.2,3.9,4.3,3.8,4.1,1.5,2.2,2.4,�k,6.0,��
2014/07/16,23:10,2.2,3.9,4.3,3.8,4.1,1.5,2.1,2.4,�k,6.8,��
2014/07/16,23:20,2.2,3.9,4.3,3.8,4.1,1.5,2.1,2.4,�k,8.2,��
2014/07/16,23:30,2.2,3.9,4.3,3.8,4.1,1.5,2.1,2.4,�k,7.2,��
2014/07/16,23:40,2.2,3.9,4.3,3.8,4.1,1.5,2.1,2.4,�k,7.7,��
2014/07/16,23:50,2.2,3.9,4.3,3.8,4.1,1.5,2.1,2.4,�k,6.5,��
